| time (UTC) | temp F | wind direction | speed knots | gust knots | rain 1hr in | rain 24hr in | rain mn in | humidity % | barometer mb |
| 20260507074130 | 52 | 302 | 0.0 | 3.5 | 0.01 | 0.04 | 0.04 | 77 | 1018.2 |
| 20260507073230 | 52 | 259 | 0.0 | 3.5 | 0.01 | 0.04 | 0.04 | 77 | 1018.2 |
| 20260507072740 | 52 | 237 | 0.0 | 3.5 | 0.01 | 0.04 | 0.04 | 77 | 1018.2 |
| 20260507072559 | 51 | 307 | 0.0 | 3.5 | 0.01 | 0.04 | 0.04 | 77 | 1018.2 |
| 20260507071748 | 51 | 351 | 1.7 | 3.5 | 0.01 | 0.04 | 0.04 | 77 | 1018.3 |
| 20260507071136 | 51 | 213 | 0.0 | 3.5 | 0.01 | 0.04 | 0.04 | 77 | 1018.3 |
| 20260507070759 | 51 | 240 | 0.0 | 3.5 | 0.01 | 0.04 | 0.04 | 78 | 1018.3 |
| 20260507070238 | 51 | 0 | 0.0 | 3.5 | 0.01 | 0.04 | 0.04 | 77 | 1018.2 |
| 20260507065646 | 51 | 299 | 1.7 | 3.5 | 0.00 | 0.02 | 0.04 | 77 | 1018.2 |
| 20260507065306 | 50 | 257 | 0.0 | 3.5 | 0.00 | 0.02 | 0.04 | 77 | 1018.1 |
| 20260507064734 | 50 | 231 | 0.9 | 4.3 | 0.00 | 0.02 | 0.02 | 77 | 1018.1 |
| 20260507064301 | 50 | 223 | 1.7 | 4.3 | 0.00 | 0.02 | 0.02 | 77 | 1018.1 |
| 20260507063710 | 50 | 243 | 0.0 | 3.5 | 0.00 | 0.02 | 0.02 | 77 | 1018.0 |
| 20260507063647 | 50 | 217 | 0.9 | 4.3 | 0.01 | 0.02 | 0.02 | 77 | 1018.1 |
| 20260507063417 | 50 | 230 | 2.6 | 4.3 | 0.01 | 0.02 | 0.02 | 77 | 1018.1 |
| 20260507062305 | 50 | 220 | 0.9 | 4.3 | 0.01 | 0.02 | 0.02 | 78 | 1017.9 |
| 20260507061702 | 50 | 24 | 0.0 | 2.6 | 0.01 | 0.02 | 0.02 | 78 | 1017.8 |
| 20260507061211 | 49 | 18 | 0.0 | 2.6 | 0.01 | 0.02 | 0.02 | 78 | 1017.8 |
| 20260507060802 | 49 | 130 | 0.0 | 0.9 | 0.01 | 0.02 | 0.02 | 79 | 1017.9 |
| 20260507060203 | 48 | 124 | 0.0 | 4.3 | 0.00 | 0.01 | 0.02 | 78 | 1017.8 |
| 20260507060145 | 49 | 124 | 0.0 | 2.6 | 0.01 | 0.02 | 0.02 | 79 | 1017.9 |
| 20260507055202 | 47 | 124 | 1.7 | 4.3 | 0.00 | 0.01 | 0.02 | 78 | 1017.8 |
| 20260507055153 | 47 | 85 | 0.0 | 0.0 | 0.00 | 0.01 | 0.02 | 77 | 1017.7 |
| 20260507054250 | 47 | 348 | 0.0 | 0.9 | 0.00 | 0.01 | 0.02 | 77 | 1017.6 |
| 20260507053641 | 47 | 347 | 0.0 | 1.7 | 0.00 | 0.01 | 0.01 | 77 | 1017.5 |
| 20260507053109 | 47 | 283 | 1.7 | 1.7 | 0.00 | 0.00 | 0.00 | 77 | 1017.3 |
| 20260507052634 | 47 | 274 | 0.0 | 1.7 | 0.00 | 0.01 | 0.01 | 77 | 1017.3 |
| 20260507052145 | 47 | 293 | 0.0 | 1.7 | 0.00 | 0.01 | 0.01 | 77 | 1017.3 |
| 20260507051651 | 47 | 292 | 0.0 | 1.7 | 0.00 | 0.01 | 0.01 | 77 | 1017.3 |
| 20260507051145 | 47 | 298 | 0.0 | 0.9 | 0.00 | 0.01 | 0.01 | 77 | 1017.4 |
| 20260507050721 | 47 | 298 | 0.0 | 0.0 | 0.00 | 0.01 | 0.01 | 77 | 1017.4 |
| 20260507050215 | 47 | 298 | 0.0 | 0.0 | 0.00 | 0.01 | 0.01 | 77 | 1017.3 |
| 20260507045748 | 47 | 298 | 0.0 | 0.0 | 0.00 | 0.01 | 0.01 | 77 | 1017.2 |
| 20260507045709 | 0 | 0.0 | 0.0 | 0.00 | 0.00 | 0.00 | 1017.2 | ||
| 20260507044736 | 47 | 288 | 0.0 | 2.6 | 0.00 | 0.00 | 0.00 | 77 | 1017.2 |
| 20260507044317 | 0 | 3 | 1.7 | 0.0 | 0.00 | 0.01 | 0.01 | 1017.1 | |
| 20260507043733 | 0 | 0.0 | 0.0 | 0.00 | 0.00 | 0.00 | 1017.1 | ||
| 20260507043622 | 46 | 348 | 0.9 | 0.9 | 0.00 | 0.01 | 0.01 | 77 | 1017.1 |
| 20260507042630 | 46 | 302 | 0.0 | 0.0 | 0.00 | 0.01 | 0.01 | 77 | 1017.1 |
| 20260507042140 | 47 | 302 | 0.0 | 0.9 | 0.01 | 0.01 | 0.01 | 77 | 1017.0 |
| 20260507041747 | 47 | 302 | 0.0 | 0.9 | 0.01 | 0.01 | 0.01 | 76 | 1017.0 |
| 20260507041159 | 47 | 302 | 0.0 | 2.6 | 0.01 | 0.01 | 0.01 | 76 | 1017.0 |
| 20260507040735 | 47 | 303 | 0.0 | 2.6 | 0.01 | 0.01 | 0.01 | 76 | 1016.9 |
| 20260507040038 | 47 | 353 | 0.0 | 3.5 | 0.00 | 0.00 | 0.00 | 77 | 1016.9 |
| 20260507035735 | 47 | 358 | 0.9 | 4.3 | 0.00 | 0.00 | 0.01 | 77 | 1016.9 |
| 20260507035225 | 47 | 357 | 1.7 | 4.3 | 0.00 | 0.00 | 0.01 | 77 | 1016.9 |
| 20260507034638 | 47 | 118 | 0.0 | 0.9 | 0.00 | 0.00 | 0.01 | 76 | 1016.9 |
| 20260507034205 | 47 | 118 | 0.0 | 0.0 | 0.00 | 0.00 | 0.01 | 76 | 1016.9 |
| 20260507033703 | 47 | 118 | 0.0 | 0.0 | 0.00 | 0.00 | 0.01 | 75 | 1016.9 |
| 20260507033152 | 47 | 118 | 0.0 | 1.7 | 0.00 | 0.00 | 0.01 | 75 | 1016.8 |
| 20260507032642 | 47 | 118 | 0.0 | 2.6 | 0.00 | 0.00 | 0.01 | 75 | 1016.8 |
| 20260507032140 | 47 | 120 | 0.0 | 2.6 | 0.00 | 0.00 | 0.00 | 75 | 1016.8 |
| 20260507031742 | 47 | 120 | 2.6 | 2.6 | 0.00 | 0.00 | 0.00 | 75 | 1016.8 |
| 20260507031659 | 47 | 121 | 0.0 | 2.6 | 0.00 | 0.00 | 0.00 | 75 | 1016.9 |
| 20260507030629 | 47 | 65 | 0.0 | 0.0 | 0.00 | 0.00 | 0.00 | 75 | 1016.8 |
| 20260507030438 | 47 | 63 | 0.0 | 0.0 | 0.00 | 0.00 | 0.00 | 75 | 1016.8 |
| 20260506212227 | 52 | 62 | 1.7 | 5.2 | 0.01 | 0.20 | 0.21 | 66 | 1017.6 |
| 20260506211655 | 53 | 85 | 0.9 | 9.6 | 0.01 | 0.20 | 0.20 | 65 | 1017.7 |
| 20260506211145 | 53 | 73 | 6.1 | 9.6 | 0.01 | 0.20 | 0.20 | 65 | 1017.7 |
| 20260506210754 | 54 | 123 | 1.7 | 8.7 | 0.01 | 0.20 | 0.20 | 65 | 1017.6 |
| 20260506210125 | 54 | 85 | 4.3 | 6.1 | 0.01 | 0.20 | 0.20 | 65 | 1017.5 |
| 20260506205704 | 54 | 125 | 3.5 | 6.1 | 0.00 | 0.19 | 0.20 | 65 | 1017.4 |
| 20260506205154 | 55 | 96 | 3.5 | 5.2 | 0.00 | 0.19 | 0.20 | 65 | 1017.4 |
| 20260506204645 | 55 | 118 | 3.5 | 4.3 | 0.00 | 0.19 | 0.20 | 65 | 1017.1 |
| 20260506204232 | 55 | 292 | 0.0 | 2.6 | 0.01 | 0.19 | 0.19 | 65 | 1016.7 |
| 20260506203740 | 55 | 292 | 0.9 | 3.5 | 0.01 | 0.19 | 0.19 | 64 | 1016.4 |
| 20260506203248 | 55 | 300 | 1.7 | 3.5 | 0.01 | 0.19 | 0.19 | 64 | 1016.2 |
| 20260506203107 | 55 | 299 | 0.0 | 3.5 | 0.01 | 0.19 | 0.19 | 64 | 1016.0 |
| 20260506202842 | 55 | 248 | 0.9 | 3.5 | 0.02 | 0.19 | 0.19 | 64 | 1015.8 |
| 20260506202123 | 55 | 343 | 0.0 | 5.2 | 0.02 | 0.19 | 0.19 | 64 | 1015.8 |
| 20260506201055 | 55 | 282 | 1.7 | 5.2 | 0.00 | 0.00 | 0.00 | 63 | 1015.8 |
| 20260506200705 | 56 | 278 | 1.7 | 5.2 | 0.02 | 0.19 | 0.19 | 63 | 1015.8 |
| 20260506200304 | 56 | 281 | 1.7 | 5.2 | 0.02 | 0.19 | 0.19 | 64 | 1015.9 |
| 20260506195731 | 56 | 305 | 1.7 | 4.3 | 0.00 | 0.17 | 0.19 | 64 | 1015.7 |
| 20260506195139 | 56 | 266 | 0.9 | 6.1 | 0.00 | 0.17 | 0.19 | 63 | 1015.7 |
| 20260506194741 | 57 | 307 | 3.5 | 6.1 | 0.00 | 0.17 | 0.19 | 63 | 1015.6 |
| 20260506194155 | 57 | 302 | 0.0 | 2.6 | 0.01 | 0.17 | 0.18 | 64 | 1015.5 |
| 20260506193738 | 57 | 282 | 0.0 | 2.6 | 0.01 | 0.17 | 0.18 | 63 | 1015.5 |
| 20260506193248 | 57 | 289 | 0.9 | 2.6 | 0.01 | 0.17 | 0.18 | 62 | 1015.4 |
| 20260506192713 | 57 | 310 | 0.9 | 3.5 | 0.01 | 0.17 | 0.18 | 60 | 1015.2 |
| 20260506192157 | 57 | 320 | 0.0 | 3.5 | 0.01 | 0.17 | 0.17 | 60 | 1015.1 |
| 20260506191733 | 56 | 295 | 0.0 | 1.7 | 0.02 | 0.17 | 0.17 | 60 | 1014.9 |
| 20260506191722 | 57 | 286 | 0.0 | 4.3 | 0.02 | 0.17 | 0.17 | 60 | 1014.9 |
| 20260506190649 | 57 | 281 | 0.9 | 1.7 | 0.02 | 0.17 | 0.17 | 60 | 1014.7 |
| 20260506190633 | 57 | 261 | 0.0 | 4.3 | 0.02 | 0.17 | 0.17 | 60 | 1014.9 |
| 20260506185700 | 57 | 307 | 0.0 | 0.0 | 0.00 | 0.14 | 0.17 | 61 | 1014.7 |
| 20260506185149 | 57 | 307 | 0.0 | 3.5 | 0.01 | 0.14 | 0.17 | 60 | 1014.7 |
| 20260506184701 | 57 | 289 | 0.0 | 3.5 | 0.01 | 0.14 | 0.15 | 60 | 1014.6 |
| 20260506184141 | 57 | 296 | 0.0 | 3.5 | 0.01 | 0.14 | 0.15 | 61 | 1014.6 |
| 20260506183724 | 57 | 341 | 0.0 | 4.3 | 0.01 | 0.14 | 0.15 | 60 | 1014.5 |
| 20260506183241 | 57 | 286 | 0.0 | 4.3 | 0.02 | 0.14 | 0.15 | 60 | 1014.5 |
| 20260506182728 | 58 | 272 | 0.9 | 2.6 | 0.02 | 0.14 | 0.15 | 61 | 1014.4 |
| 20260506182147 | 58 | 299 | 0.0 | 3.5 | 0.02 | 0.14 | 0.14 | 62 | 1014.3 |
| 20260506181758 | 58 | 303 | 0.0 | 3.5 | 0.02 | 0.14 | 0.14 | 61 | 1014.4 |
| 20260506181220 | 58 | 293 | 0.9 | 3.5 | 0.04 | 0.14 | 0.14 | 61 | 1014.2 |
| 20260506180732 | 58 | 351 | 0.0 | 3.5 | 0.04 | 0.14 | 0.14 | 61 | 1014.2 |
| 20260506180657 | 58 | 285 | 0.9 | 2.6 | 0.00 | 0.11 | 0.14 | 61 | 1014.1 |
| 20260506180428 | 58 | 271 | 0.0 | 3.5 | 0.04 | 0.14 | 0.14 | 61 | 1014.1 |
| 20260506175144 | 58 | 293 | 0.0 | 2.6 | 0.01 | 0.11 | 0.13 | 60 | 1014.2 |
| 20260506174658 | 59 | 296 | 0.9 | 1.7 | 0.01 | 0.11 | 0.13 | 60 | 1014.1 |
| 20260506174136 | 59 | 296 | 0.0 | 2.6 | 0.01 | 0.11 | 0.13 | 60 | 1014.0 |
| 20260506173701 | 59 | 296 | 0.0 | 2.6 | 0.02 | 0.11 | 0.13 | 60 | 1014.1 |
| 20260506173234 | 59 | 288 | 0.9 | 1.7 | 0.02 | 0.11 | 0.12 | 60 | 1014.1 |
| 20260506172732 | 60 | 186 | 0.0 | 1.7 | 0.02 | 0.11 | 0.12 | 59 | 1014.1 |
| 20260506172222 | 60 | 171 | 0.0 | 1.7 | 0.04 | 0.11 | 0.12 | 59 | 1014.0 |
| 20260506172107 | 60 | 171 | 0.0 | 1.7 | 0.04 | 0.11 | 0.12 | 58 | 1013.9 |
| 20260506171233 | 61 | 171 | 0.0 | 0.9 | 0.04 | 0.11 | 0.11 | 58 | 1013.8 |
| 20260506170733 | 61 | 171 | 0.0 | 1.7 | 0.05 | 0.11 | 0.11 | 57 | 1013.8 |
| 20260506170139 | 61 | 169 | 0.0 | 1.7 | 0.05 | 0.11 | 0.11 | 56 | 1013.8 |
| 20260506165745 | 62 | 168 | 0.0 | 1.7 | 0.00 | 0.06 | 0.09 | 56 | 1013.8 |
| 20260506165713 | 62 | 166 | 0.0 | 1.7 | 0.01 | 0.06 | 0.09 | 54 | 1013.8 |
| 20260506164716 | 63 | 135 | 0.0 | 1.7 | 0.01 | 0.06 | 0.09 | 53 | 1013.9 |
| 20260506164300 | 63 | 131 | 0.0 | 4.3 | 0.01 | 0.06 | 0.09 | 52 | 1013.9 |
| 20260506163822 | 63 | 131 | 0.9 | 4.3 | 0.01 | 0.06 | 0.08 | 49 | 1013.8 |
| 20260506163159 | 64 | 134 | 0.0 | 0.0 | 0.01 | 0.06 | 0.08 | 46 | 1013.8 |
| 20260506162700 | 65 | 134 | 0.0 | 0.0 | 0.01 | 0.06 | 0.07 | 45 | 1013.7 |
| 20260506162211 | 66 | 134 | 0.0 | 0.0 | 0.01 | 0.06 | 0.07 | 43 | 1013.6 |
| 20260506162202 | 65 | 134 | 0.0 | 0.0 | 0.01 | 0.06 | 0.07 | 45 | 1013.7 |
| 20260506161204 | 67 | 134 | 0.0 | 0.9 | 0.01 | 0.06 | 0.07 | 41 | 1013.7 |
| 20260506160704 | 68 | 137 | 0.0 | 4.3 | 0.00 | 0.05 | 0.06 | 39 | 1013.6 |
| 20260506160654 | 67 | 134 | 0.0 | 3.5 | 0.01 | 0.06 | 0.06 | 41 | 1013.7 |
| 20260506160153 | 68 | 134 | 2.6 | 4.3 | 0.01 | 0.06 | 0.06 | 38 | 1013.7 |
| 20260506155616 | 69 | 275 | 1.7 | 5.2 | 0.00 | 0.05 | 0.05 | 37 | 1013.7 |
| 20260506154741 | 68 | 286 | 3.5 | 5.2 | 0.00 | 0.05 | 0.05 | 39 | 1013.8 |
| 20260506154647 | 68 | 292 | 0.9 | 5.2 | 0.00 | 0.05 | 0.05 | 40 | 1013.6 |
| 20260506154237 | 68 | 99 | 0.9 | 5.2 | 0.00 | 0.05 | 0.05 | 39 | 1013.8 |
| 20260506153714 | 68 | 130 | 0.9 | 3.5 | 0.00 | 0.05 | 0.05 | 38 | 1013.8 |
| 20260506152645 | 67 | 345 | 0.9 | 4.3 | 0.00 | 0.05 | 0.05 | 42 | 1013.9 |
| 20260506152220 | 66 | 23 | 1.7 | 6.1 | 0.00 | 0.05 | 0.05 | 40 | 1013.9 |
| 20260506152138 | 67 | 96 | 1.7 | 6.1 | 0.00 | 0.05 | 0.05 | 39 | 1013.9 |
| 20260506151153 | 67 | 0 | 2.6 | 4.3 | 0.00 | 0.05 | 0.05 | 40 | 1013.9 |
| 20260506150641 | 67 | 344 | 0.9 | 3.5 | 0.00 | 0.05 | 0.05 | 43 | 1013.9 |
| 20260506150232 | 67 | 235 | 1.7 | 4.3 | 0.00 | 0.05 | 0.05 | 40 | 1014.0 |
| 20260506145642 | 68 | 176 | 1.7 | 3.5 | 0.00 | 0.05 | 0.05 | 39 | 1014.1 |
| 20260506145610 | 68 | 224 | 0.9 | 4.3 | 0.00 | 0.05 | 0.05 | 39 | 1014.1 |
| 20260506144758 | 68 | 219 | 0.9 | 4.3 | 0.00 | 0.05 | 0.05 | 41 | 1014.1 |
| 20260506144224 | 69 | 147 | 1.7 | 4.3 | 0.00 | 0.05 | 0.05 | 40 | 1014.1 |
| 20260506143633 | 68 | 127 | 2.6 | 4.3 | 0.00 | 0.05 | 0.05 | 40 | 1014.1 |
| 20260506143154 | 68 | 144 | 0.9 | 6.1 | 0.00 | 0.05 | 0.05 | 39 | 1014.2 |
| 20260506143126 | 68 | 149 | 0.0 | 4.3 | 0.00 | 0.05 | 0.05 | 41 | 1014.1 |
| 20260506142145 | 68 | 135 | 1.7 | 6.1 | 0.00 | 0.05 | 0.05 | 38 | 1014.0 |
| 20260506141627 | 68 | 125 | 3.5 | 4.3 | 0.00 | 0.05 | 0.05 | 41 | 1014.1 |
| 20260506141310 | 68 | 130 | 1.7 | 4.3 | 0.00 | 0.05 | 0.05 | 43 | 1014.2 |
| 20260506140638 | 67 | 134 | 2.6 | 4.3 | 0.00 | 0.05 | 0.05 | 42 | 1014.2 |
| 20260506140226 | 66 | 85 | 1.7 | 4.3 | 0.00 | 0.05 | 0.05 | 44 | 1014.2 |
| 20260506140122 | 65 | 62 | 0.9 | 4.3 | 0.00 | 0.05 | 0.05 | 47 | 1014.2 |
| 20260506135243 | 64 | 90 | 0.9 | 5.2 | 0.00 | 0.05 | 0.05 | 48 | 1014.3 |
| 20260506134800 | 64 | 10 | 1.7 | 5.2 | 0.00 | 0.05 | 0.05 | 48 | 1014.4 |
| 20260506134144 | 64 | 44 | 1.7 | 5.2 | 0.00 | 0.05 | 0.05 | 49 | 1014.4 |
| 20260506133758 | 64 | 63 | 2.6 | 9.6 | 0.00 | 0.05 | 0.05 | 51 | 1014.5 |
| 20260506133730 | 64 | 75 | 1.7 | 9.6 | 0.00 | 0.05 | 0.05 | 52 | 1014.4 |
| 20260506132751 | 64 | 28 | 5.2 | 7.8 | 0.01 | 0.05 | 0.05 | 53 | 1014.5 |
| 20260506132733 | 63 | 113 | 1.7 | 10.4 | 0.01 | 0.05 | 0.05 | 58 | 1014.5 |
| 20260506131727 | 62 | 114 | 6.1 | 10.4 | 0.01 | 0.05 | 0.05 | 56 | 1014.6 |
| 20260506131235 | 62 | 0 | 3.5 | 6.1 | 0.01 | 0.05 | 0.05 | 61 | 1014.6 |
| 20260506130634 | 61 | 80 | 2.6 | 6.1 | 0.01 | 0.05 | 0.05 | 60 | 1014.7 |
| 20260506130258 | 61 | 31 | 3.5 | 6.1 | 0.01 | 0.05 | 0.05 | 62 | 1014.7 |
| 20260506125735 | 60 | 341 | 0.9 | 7.8 | 0.00 | 0.04 | 0.05 | 63 | 1014.7 |
| 20260506125147 | 60 | 66 | 5.2 | 6.1 | 0.01 | 0.04 | 0.05 | 66 | 1014.7 |
| 20260506124635 | 58 | 104 | 1.7 | 4.3 | 0.01 | 0.04 | 0.05 | 66 | 1014.7 |
| 20260506124254 | 57 | 0 | 0.9 | 3.5 | 0.01 | 0.04 | 0.05 | 68 | 1014.7 |
| 20260506123708 | 57 | 285 | 0.9 | 3.5 | 0.01 | 0.04 | 0.05 | 68 | 1014.7 |
| 20260506123234 | 56 | 317 | 0.0 | 4.3 | 0.01 | 0.04 | 0.05 | 69 | 1014.8 |
| 20260506122706 | 55 | 331 | 1.7 | 4.3 | 0.01 | 0.04 | 0.04 | 70 | 1014.8 |
| 20260506122241 | 55 | 338 | 0.0 | 3.5 | 0.01 | 0.04 | 0.04 | 68 | 1014.8 |
| 20260506122116 | 55 | 278 | 1.7 | 8.7 | 0.01 | 0.04 | 0.04 | 68 | 1015.1 |
| 20260506121209 | 56 | 231 | 2.6 | 9.6 | 0.01 | 0.04 | 0.04 | 64 | 1015.2 |
| 20260506120745 | 56 | 243 | 6.1 | 9.6 | 0.01 | 0.04 | 0.04 | 62 | 1015.2 |
| 20260506120200 | 58 | 237 | 6.1 | 12.2 | 0.01 | 0.04 | 0.04 | 60 | 1014.8 |
| 20260506115639 | 60 | 266 | 7.0 | 12.2 | 0.00 | 0.02 | 0.04 | 58 | 1014.8 |
| 20260506115231 | 62 | 265 | 1.7 | 5.2 | 0.00 | 0.02 | 0.02 | 55 | 1014.7 |
| 20260506115109 | 61 | 244 | 5.2 | 4.3 | 0.00 | 0.00 | 0.00 | 55 | 1014.7 |
| 20260506114148 | 62 | 209 | 2.6 | 5.2 | 0.00 | 0.00 | 0.00 | 54 | 1014.7 |
| 20260506113548 | 61 | 279 | 2.6 | 4.3 | 0.00 | 0.00 | 0.00 | 56 | 1014.6 |
| 20260506113200 | 61 | 298 | 2.6 | 4.3 | 0.01 | 0.02 | 0.02 | 55 | 1014.7 |
| 20260506113116 | 61 | 278 | 0.9 | 4.3 | 0.01 | 0.02 | 0.02 | 58 | 1014.8 |
| 20260506112228 | 61 | 221 | 2.6 | 6.1 | 0.01 | 0.02 | 0.02 | 58 | 1014.7 |
| 20260506111725 | 62 | 235 | 3.5 | 6.1 | 0.01 | 0.02 | 0.02 | 55 | 1014.6 |
| 20260506111210 | 63 | 235 | 2.6 | 6.1 | 0.01 | 0.02 | 0.02 | 55 | 1014.6 |
| 20260506110721 | 64 | 231 | 2.6 | 4.3 | 0.01 | 0.02 | 0.02 | 56 | 1014.5 |
| 20260506110138 | 64 | 137 | 0.9 | 7.8 | 0.01 | 0.02 | 0.02 | 54 | 1014.5 |
| 20260506105758 | 64 | 133 | 4.3 | 7.8 | 0.00 | 0.01 | 0.02 | 53 | 1014.6 |
| 20260506105252 | 65 | 110 | 4.3 | 5.2 | 0.00 | 0.01 | 0.02 | 52 | 1014.5 |
| 20260506105223 | 65 | 128 | 2.6 | 5.2 | 0.00 | 0.01 | 0.02 | 54 | 1014.6 |
| 20260506104255 | 64 | 85 | 2.6 | 5.2 | 0.00 | 0.01 | 0.02 | 59 | 1014.6 |
| 20260506103645 | 62 | 138 | 1.7 | 3.5 | 0.00 | 0.01 | 0.01 | 60 | 1014.6 |
| 20260506103205 | 61 | 195 | 0.0 | 4.3 | 0.00 | 0.01 | 0.01 | 56 | 1014.7 |
| 20260506102752 | 62 | 148 | 1.7 | 5.2 | 0.00 | 0.01 | 0.01 | 57 | 1014.8 |
| 20260506102734 | 62 | 135 | 4.3 | 4.3 | 0.00 | 0.01 | 0.01 | 58 | 1014.9 |
| 20260506101705 | 62 | 114 | 1.7 | 5.2 | 0.00 | 0.01 | 0.01 | 59 | 1014.9 |
| 20260506101224 | 61 | 99 | 2.6 | 4.3 | 0.00 | 0.01 | 0.01 | 61 | 1014.9 |
| 20260506101213 | 60 | 135 | 0.9 | 3.5 | 0.00 | 0.01 | 0.01 | 63 | 1014.9 |
| 20260506100607 | 59 | 199 | 0.0 | 0.0 | 0.00 | 0.01 | 0.01 | 65 | 1015.1 |
| 20260506100336 | 59 | 144 | 0.9 | 3.5 | 0.00 | 0.01 | 0.01 | 62 | 1015.2 |
| 20260506095209 | 58 | 199 | 0.0 | 0.0 | 0.00 | 0.01 | 0.01 | 65 | 1015.1 |
| 20260506094751 | 58 | 199 | 0.0 | 0.0 | 0.00 | 0.01 | 0.01 | 65 | 1015.1 |
| 20260506094144 | 57 | 199 | 0.0 | 1.7 | 0.00 | 0.01 | 0.01 | 65 | 1015.1 |
| 20260506093700 | 57 | 199 | 0.0 | 1.7 | 0.00 | 0.01 | 0.01 | 66 | 1015.2 |
| 20260506093130 | 58 | 121 | 0.0 | 2.6 | 0.00 | 0.01 | 0.01 | 67 | 1015.2 |
| 20260506092739 | 58 | 118 | 0.0 | 3.5 | 0.00 | 0.01 | 0.01 | 67 | 1015.1 |
| 20260506092206 | 58 | 118 | 0.0 | 3.5 | 0.00 | 0.01 | 0.01 | 69 | 1014.9 |
| 20260506092121 | 57 | 117 | 1.7 | 3.5 | 0.00 | 0.01 | 0.01 | 71 | 1014.9 |
| 20260506091152 | 56 | 159 | 1.7 | 2.6 | 0.01 | 0.01 | 0.01 | 72 | 1014.9 |
| 20260506090707 | 56 | 164 | 0.0 | 1.7 | 0.01 | 0.01 | 0.01 | 72 | 1014.8 |
| 20260506090246 | 56 | 164 | 0.0 | 1.7 | 0.01 | 0.01 | 0.01 | 73 | 1014.8 |
| 20260506085657 | 56 | 155 | 0.0 | 1.7 | 0.00 | 0.00 | 0.01 | 74 | 1014.6 |
| 20260506085147 | 56 | 155 | 0.0 | 0.0 | 0.00 | 0.00 | 0.00 | 77 | 1014.7 |
| 20260506084631 | 55 | 155 | 0.0 | 0.0 | 0.00 | 0.00 | 0.01 | 78 | 1014.7 |
| 20260506084142 | 55 | 155 | 0.0 | 0.9 | 0.00 | 0.00 | 0.01 | 77 | 1014.7 |
| 20260506083653 | 55 | 155 | 0.0 | 1.7 | 0.00 | 0.00 | 0.01 | 77 | 1014.7 |
| 20260506083031 | 55 | 155 | 0.0 | 1.7 | 0.00 | 0.00 | 0.00 | 79 | 1014.6 |
| 20260506082733 | 55 | 155 | 0.0 | 0.9 | 0.00 | 0.00 | 0.01 | 79 | 1014.6 |
| 20260506082250 | 55 | 154 | 0.0 | 0.9 | 0.00 | 0.00 | 0.01 | 80 | 1014.6 |
| 20260506081633 | 55 | 154 | 0.0 | 0.9 | 0.00 | 0.00 | 0.00 | 80 | 1014.6 |
| 20260506081226 | 55 | 154 | 0.0 | 0.9 | 0.00 | 0.00 | 0.00 | 80 | 1014.6 |
| 20260506081125 | 54 | 154 | 0.0 | 2.6 | 0.00 | 0.00 | 0.00 | 80 | 1014.4 |
| 20260506080233 | 54 | 154 | 0.0 | 2.6 | 0.00 | 0.00 | 0.00 | 80 | 1014.5 |